Погода в Аруа

Уганда     3°01′18″N   30°54′22″E
темп.,
°C
ветер,
м/с
пор.,
м/с
влажн.,
%
обл.,
%
осадки,
мм/ч
давл.,
гПа
погр.,
м
10 августа, ср
ср1000:00+19з3789100 1.3 1013120
03:00+19зюз2289100 1.5 101237
06:00+18з1189100 0.1 101313
09:00+21ююз118098 0.1 1014112
12:00+25вюв2268100 2.3 1012366
15:00+27з225692 4.8 10091615
18:00+23з228298 3.9 1010140
21:00+20зсз1188100 6.1 101214
11 августа, чт
чт1100:00+20з2285100 0.1 101237
03:00+19юз1187100 0.2 101117
06:00+18ююз129199 0.2 101216
09:00+19сз1189100 0.9 101326
12:00+20вюв1289100 0.1 1013131
15:00+24всв1170100 0.7 1011412
18:00+22св1178100 0.7 101027
21:00+20ссз1181100 0.7 101212
12 августа, пт
пт1200:00+20юв1186100 0.0 101312
03:00+18зсз0191100 0.0 101111
06:00+19с018897 0.0 101211
09:00+21вюв1181100 0.1 1013248
12:00+21в2380100 0.2 1013373
15:00+25в2364100 1.3 1010810
18:00+20зюз2284100 1.4 101124
21:00+20зсз218360 1.6 101314
13 августа, сб
сб1300:00+18з368895 0.4 1014110
03:00+18з369190 0.4 1012140
06:00+18зсз2392100 0.0 101365
09:00+20сз1382100 0.0 1014253
12:00+22с347595 0.2 1014460
15:00+23с227373 2.1 1011293
18:00+21ссз1186100 3.6 101112
21:00+20з2390100 4.6 101358
14 августа, вс
вс1400:00+19зюз2289100 0.4 101322
03:00+19зюз1189100 0.6 101215
06:00+18сз1189100 0.1 101312
09:00+19з2389100 0.6 1015106
12:00+21з3480100 0.3 1014316
15:00+22зсз2374100 0.3 1011311
18:00+20зсз1183100 0.0 101112
21:00+19зюз118599 0.0 101213